Find Starlink 32924

NORAD ID: 63092 Int'l Des: 2025-037 Owner: SPXS Country: US Constellation: starlink operational
LEOCIRCULAR

Current View

Loading 3D Globe...

About Starlink 32924

Starlink 32924 (NORAD 63092) is a starlink constellation satellite (v2 mini) launched Feb 23, 2025 by SPXS of US. It operates in LEO, CIRCULAR orbit with a mass of 730.00 kg.

About Starlink 32924

Description loading...

Upcoming Passes

Passes for default location (London). Set your location on the main map for personalized predictions.

Altitude History

Loading altitude history...

Two-Line Element Set

1 63092U 25037R 26167.55278344 .00002660 00000-0 23065-3 0 9990
2 63092 70.0014 105.0733 0003121 264.3317 95.7487 14.98333566 73419
Epoch: Jun 16, 2026 • Age: 8 hours

Current Status

Altitude 594.1 km
Velocity 7.56 km/s
Sub-Earth Point -65.14°S, 118.38°E
Launch Date Feb 23, 2025
Age 1.3 years
Type internet

Technical Details

Classification Payload
Mass 730.00 kg
Dry Mass 700.00 kg
Total Mass 730.00 kg
Length 0.30 m
Diameter 4.10 m
Span 29.00 m
Shape Box + pan
Manufacturer SPXS
Bus Type Starlink V2M
Phase Status In Orbit
Owner/State SPXS/US

Most Searched